Scottsbluff, NE

8:37 PM MDT on October 18, 2019 (GMT -0600)
Heilig

Weather History for KBFF - August, 2019

Change the Weather History Date:

Wednesday, August 21, 2019

  Actual Average Record
Temperature  
Mean Temperature 70 °F -  
Max Temperature 82 °F 87 °F 101 °F (1960)
Min Temperature 57 °F 56 °F 43 °F (2009)
Cooling Degree Days 4    
Growing Degree Days 20 (Base 50)    
Moisture  
Dew Point 59 °F    
Average Humidity 68    
Maximum Humidity 96    
Minimum Humidity 42    
Precipitation  
Precipitation 0.01 in - - ()
Sea Level Pressure  
Sea Level Pressure 30.03 in    
Wind  
Wind Speed 6 mph (East)    
Max Wind Speed 15 mph    
Max Gust Speed 29 mph    
Visibility 10 miles    
Events Rain , Thunderstorm    
Averages and records for this station are not official NWS values.
T = Trace of Precipitation, MM = Missing Value Source: NWS Daily Summary

Daily Weather History Graph

Daily Weather History Graph

Search for Another Location

Airport or City:

Astronomy

Aug. 21, 2019 Rise Set
Actual Time 6:08 AM MDT 7:45 PM MDT
Civil Twilight 5:39 AM MDT 8:15 PM MDT
Nautical Twilight 5:03 AM MDT 8:50 PM MDT
Astronomical Twilight 4:25 AM MDT 9:28 PM MDT
Moon 10:59 PM MDT (8/21) 11:51 AM MDT (8/21)
Length of Visible Light 14h 36m
Length of Day
13h 37m
Waning Gibbous, 68% of the Moon is Illuminated
Aug 21
Waning Gibbous
Aug 23
Last Quarter
Aug 30
New
Sep 5
First Quarter
Sep 13
Full

Hourly Weather History & Observations

Time (MDT) Temp. Heat Index Dew Point Humidity Pressure Visibility Wind Dir Wind Speed Gust Speed Precip Events Conditions
12:04 AM 64.0 °F - 61.0 °F 90% 30.11 in 10.0 mi North - - 0.00 in Rain Light Rain
12:53 AM 69.1 °F - 55.9 °F 63% 29.92 in 10.0 mi North - - 0.00 in Rain Light Rain
1:53 AM 69.1 °F - 55.0 °F 61% 29.90 in 10.0 mi North - - 0.00 in   Overcast
2:02 AM 71.1 °F - 54.0 °F 55% 30.09 in 10.0 mi North - - N/A Thunderstorm Overcast
2:13 AM 70.0 °F - 54.0 °F 57% 30.07 in 10.0 mi North - - 0.00 in Rain , Thunderstorm Light Thunderstorms and Rain
2:29 AM 66.9 °F - 55.9 °F 68% 30.08 in 10.0 mi North - - 0.00 in   Partly Cloudy
2:53 AM 66.0 °F - 55.9 °F 70% 29.96 in 10.0 mi North - - 0.00 in   Clear
3:53 AM 64.9 °F - 55.9 °F 73% 29.97 in 10.0 mi North - - N/A   Clear
4:53 AM 60.1 °F - 57.0 °F 90% 29.96 in 10.0 mi North - - N/A   Clear
5:53 AM 59.0 °F - 57.9 °F 96% 30.00 in 10.0 mi North - - N/A   Clear
6:53 AM 60.1 °F - 57.0 °F 90% 30.06 in 10.0 mi North - - N/A   Clear
7:53 AM 64.0 °F - 59.0 °F 84% 30.08 in 10.0 mi North - - N/A   Partly Cloudy
8:04 AM 64.9 °F - 59.0 °F 81% 30.21 in 10.0 mi North - - N/A   Mostly Cloudy
8:35 AM 66.9 °F - 60.1 °F 79% 30.21 in 10.0 mi North - - N/A   Mostly Cloudy
8:44 AM 66.9 °F - 61.0 °F 81% 30.21 in 10.0 mi North - - N/A   Scattered Clouds
9:53 AM 71.1 °F - 60.1 °F 68% 30.07 in 10.0 mi North - - N/A   Mostly Cloudy
10:53 AM 73.9 °F - 59.0 °F 59% 30.10 in 10.0 mi North - - N/A   Clear
11:53 AM 75.9 °F - 57.9 °F 54% 30.06 in 10.0 mi North - - N/A   Clear
12:53 PM 79.0 °F - 59.0 °F 50% 30.03 in 10.0 mi Variable 4.6 mph - N/A   Clear
1:53 PM 81.0 °F 81.6 °F 60.1 °F 49% 30.00 in 10.0 mi Calm Calm - N/A   Clear
2:53 PM 82.9 °F 83.3 °F 61.0 °F 47% 29.98 in 10.0 mi ENE 4.6 mph - N/A   Clear
3:53 PM 82.9 °F 83.7 °F 62.1 °F 49% 29.95 in 10.0 mi ESE 4.6 mph - N/A   Clear
4:53 PM 81.0 °F 81.7 °F 61.0 °F 50% 29.95 in 10.0 mi East 11.5 mph - N/A   Clear
5:53 PM 80.1 °F 81.1 °F 61.0 °F 52% 29.95 in 10.0 mi ESE 9.2 mph - N/A   Clear
6:53 PM 75.9 °F - 64.0 °F 67% 29.96 in 10.0 mi East 6.9 mph - N/A   Clear
7:53 PM 72.0 °F - 64.0 °F 76% 29.97 in 10.0 mi East 6.9 mph - N/A   Clear
8:53 PM 70.0 °F - 64.0 °F 81% 30.13 in 10.0 mi ESE 8.1 mph - N/A   Clear
9:53 PM 69.1 °F - 63.0 °F 81% 30.02 in 10.0 mi Calm Calm - N/A   Scattered Clouds
10:16 PM 66.9 °F - 54.0 °F 63% 30.16 in 10.0 mi West 15.0 mph 28.8 mph N/A   Overcast
10:53 PM 64.0 °F - 59.0 °F 84% 29.99 in 10.0 mi NNE 3.5 mph - 0.01 in Rain Light Rain
11:53 PM 64.9 °F - 55.9 °F 73% 29.98 in 10.0 mi SE 11.5 mph - 0.00 in   Clear